Weather History for Jonesboro, AR

Change the Weather History Date:

Thursday, August 16, 2012

  Actual Average Record
Temperature  
Mean Temperature 85 °F 80 °F  
Max Temperature 99 °F 90 °F 105 °F (1954)
Min Temperature 71 °F 70 °F 51 °F (1897)
Degree Days  
Heating Degree Days 0 0  
Month to date heating degree days 0 0  
Since 1 June heating degree days 0 1  
Since 1 July heating degree days 0 0  
Cooling Degree Days 20 15  
Month to date cooling degree days 284 251  
Year to date cooling degree days 1840 1338  
Since 1 June cooling degree days 1336 1125  
Growing Degree Days 36 (Base 50)    
Moisture  
Dew Point 69 °F    
Average Humidity 61    
Maximum Humidity 84    
Minimum Humidity 38    
Precipitation  
Precipitation 0.01 in 0.09 in 1.99 in (1964)
Month to date precipitation 0.05 1.32  
Year to date precipitation 15.65 29.89  
Snow  
Snow 0.00 in - - ()
Month to date snowfall 0.0  
Since 1 June snowfall 0.0  
Since 1 July snowfall 0.0  
Snow Depth 0.00 in    
Sea Level Pressure  
Sea Level Pressure 29.93 in    
Wind  
Wind Speed 7 mph (SW)    
Max Wind Speed 18 mph    
Max Gust Speed 24 mph    
Visibility 10 miles    
Events Rain    
T = Trace of Precipitation, MM = Missing Value Source: NWS Daily Summary

Daily Weather History Graph

Daily Weather History Graph

Search for Another Location

Airport:

Trip Planner

Search our weather history database for the weather conditions in past years. The results will help you decide how hot, cold, wet, or windy it might be!

Date:

Astronomy

Aug. 16, 2012 Rise Set
Actual Time 6:22 AM CDT 7:50 PM CDT
Civil Twilight 5:55 AM CDT 8:17 PM CDT
Nautical Twilight 5:22 AM CDT 8:49 PM CDT
Astronomical Twilight 4:48 AM CDT 9:23 PM CDT
Moon 5:21 AM CDT (8/16) 7:01 PM CDT (8/16)
Length of Visible Light 14h 21m
Length of Day
13h 27m
Waning Crescent, 1% of the Moon is Illuminated
Aug 16
Waning Crescent
Aug 17
New
Aug 24
First Quarter
Aug 31
Full
Sep 8
Last Quarter

Hourly Weather History & Observations

Time (CDT) Temp. Heat Index Dew Point Humidity Pressure Visibility Wind Dir Wind Speed Gust Speed Precip Events Conditions
12:53 AM 77.0 °F - 68.0 °F 74% 29.97 in 10.0 mi South 4.6 mph - N/A   Clear
1:53 AM 73.9 °F - 66.9 °F 79% 29.96 in 10.0 mi Calm Calm - N/A   Clear
2:53 AM 73.9 °F - 68.0 °F 82% 29.96 in 10.0 mi South 3.5 mph - N/A   Clear
3:53 AM 73.0 °F - 68.0 °F 84% 29.97 in 10.0 mi SE 3.5 mph - N/A   Clear
4:53 AM 72.0 °F - 66.9 °F 84% 29.97 in 10.0 mi Calm Calm - N/A   Scattered Clouds
5:53 AM 72.0 °F - 66.9 °F 84% 29.98 in 10.0 mi Calm Calm - N/A   Mostly Cloudy
6:53 AM 72.0 °F - 66.9 °F 84% 29.98 in 9.0 mi Calm Calm - N/A   Clear
7:53 AM 75.9 °F - 68.0 °F 76% 29.98 in 10.0 mi Calm Calm - N/A   Partly Cloudy
8:53 AM 82.9 °F 87.0 °F 70.0 °F 65% 29.97 in 10.0 mi SSW 8.1 mph - N/A   Clear
9:53 AM 86.0 °F 90.7 °F 70.0 °F 59% 29.98 in 10.0 mi WSW 8.1 mph - N/A   Clear
10:53 AM 91.0 °F 97.6 °F 71.1 °F 52% 29.97 in 10.0 mi SW 10.4 mph - N/A   Clear
11:53 AM 91.0 °F 96.6 °F 70.0 °F 50% 29.96 in 10.0 mi SW 9.2 mph 17.3 mph N/A   Scattered Clouds
12:53 PM 95.0 °F 102.5 °F 71.1 °F 46% 29.94 in 10.0 mi SSW 9.2 mph - N/A   Clear
1:53 PM 97.0 °F 102.2 °F 68.0 °F 39% 29.91 in 10.0 mi SSW 11.5 mph 17.3 mph N/A   Clear
2:53 PM 99.0 °F 104.2 °F 68.0 °F 36% 29.87 in 10.0 mi SSW 18.4 mph 21.9 mph N/A   Clear
3:53 PM 97.0 °F 104.8 °F 71.1 °F 43% 29.84 in 10.0 mi SW 12.7 mph 21.9 mph N/A   Clear
4:53 PM 95.0 °F 100.7 °F 69.1 °F 43% 29.83 in 10.0 mi SW 17.3 mph - N/A   Clear
5:53 PM 93.0 °F 100.1 °F 71.1 °F 49% 29.85 in 10.0 mi WSW 10.4 mph - N/A   Clear
6:53 PM 91.0 °F 97.6 °F 71.1 °F 52% 29.84 in 10.0 mi WSW 10.4 mph - N/A   Clear
7:53 PM 89.1 °F 92.9 °F 68.0 °F 50% 29.86 in 10.0 mi WNW 9.2 mph - N/A   Clear
8:53 PM 86.0 °F 90.1 °F 69.1 °F 57% 29.90 in 10.0 mi WNW 5.8 mph - N/A   Clear
9:53 PM 82.9 °F 85.4 °F 66.9 °F 58% 29.93 in 10.0 mi North 8.1 mph - N/A   Clear
10:53 PM 81.0 °F 83.8 °F 68.0 °F 65% 29.98 in 10.0 mi Calm Calm - 0.00 in Rain Light Rain
11:53 PM 75.9 °F - 68.0 °F 76% 29.96 in 10.0 mi NNE 5.8 mph - 0.01 in Rain Light Rain